Vertical_Velocity
-2 -1 -0 2 2 1 0 -0 0 1 2 2 0 -0 -0 0 0 -1 -1 2 4 3 2 2 2 1 -0 1 1 2 4 6 4 2 -1 -2 -1 0 1 1 -0 -1 -1 -2 -2 -2 -1 -1 -1 -1 -1 -2 -3 -3 -3 -2 -2 -1 -2 -2 -3 -3 -2 -1 -1 -0 -0 -1 -1
-2 -1 0 2 1 0 -0 -1 0 1 2 3 2 1 1 1 -0 -1 -1 1 2 2 2 2 2 1 1 1 0 1 4 6 4 2 -1 -2 -0 1 1 1 0 -1 -1 -1 -1 -1 -1 -1 -1 -1 -1 -2 -3 -3 -2 -1 -1 -1 -2 -3 -3 -3 -2 -1 -1 -0 0 0 -0
-2 -0 1 1 0 -1 -2 -2 -1 0 1 2 2 1 2 2 0 0 1 2 2 2 2 1 1 2 2 0 -1 1 4 7 5 2 -1 -2 -0 1 2 1 0 -1 -1 -1 -1 -1 -1 -0 -0 -1 -1 -2 -3 -2 -1 -0 -0 -1 -2 -3 -4 -4 -3 -2 -1 -0 0 0 0
-1 0 1 1 -1 -2 -3 -3 -2 -0 0 -0 -0 0 1 1 1 2 3 4 3 2 1 -0 1 2 2 -1 -1 1 4 7 5 1 -1 -2 -0 1 2 1 0 -0 -1 -1 -1 -1 -0 0 0 -0 -1 -2 -3 -2 -2 -1 -1 -1 -2 -3 -4 -4 -3 -2 -1 -0 -0 -0 -0
0 1 1 1 0 -0 -1 -0 0 0 -0 -1 -1 -0 1 1 2 2 3 3 2 1 0 1 2 1 -0 -1 -1 1 4 6 4 1 -1 -1 0 1 2 1 1 0 -0 -1 -1 -1 -0 -0 -0 -1 -1 -2 -3 -3 -2 -1 -1 -1 -2 -3 -3 -3 -3 -1 -0 -0 -0 -1 -1
0 1 2 2 2 1 1 2 2 1 -1 -2 -1 0 1 1 1 0 -0 -0 -1 0 2 4 3 1 0 -1 -0 2 4 6 4 1 -1 -1 0 2 2 2 1 0 -0 -0 -1 -1 -1 -1 -1 -1 -2 -3 -3 -3 -2 -1 -1 -2 -2 -3 -3 -3 -2 -1 -1 -0 -1 -1 -1
-0 0 1 1 1 1 1 2 2 1 0 -1 1 1 1 0 0 -0 -1 -1 -0 1 2 3 2 2 1 -1 -1 2 5 6 3 0 -2 -1 1 2 2 2 1 0 -0 -0 -1 -1 -1 -1 -1 -2 -2 -3 -4 -2 -1 -1 -1 -2 -2 -3 -4 -3 -3 -2 -1 -1 -1 -2 -2
0 0 0 1 1 1 1 1 1 1 1 1 3 3 2 1 1 1 0 1 1 0 0 0 1 2 2 -2 0 3 5 6 2 -1 -2 -1 1 2 2 2 1 0 0 -0 -0 -1 -1 -1 -1 -1 -2 -3 -3 -2 -1 -0 -0 -1 -2 -2 -2 -3 -2 -2 -2 -2 -2 -2 -2
0 0 1 2 2 2 1 1 1 1 1 2 3 3 3 2 2 1 0 -0 0 1 2 2 3 4 3 1 3 5 6 5 1 -1 -2 -0 2 2 2 1 1 0 0 -0 -0 -1 -1 -1 -1 -2 -2 -3 -3 -2 -1 -0 -0 -1 -1 -2 -2 -1 -1 -1 -1 -1 -2 -3 -3
-2 -1 -0 1 1 1 2 3 3 4 4 4 4 3 2 3 1 1 0 0 2 4 5 4 5 4 3 3 5 6 6 4 0 -1 -1 1 2 3 2 1 1 0 0 0 -0 -0 -1 -1 -1 -2 -3 -4 -3 -2 -1 -1 -1 -1 -2 -2 -2 -2 -1 -0 -0 -1 -2 -2 -3
-3 -2 -1 -0 0 1 2 4 4 5 5 5 3 2 2 2 1 1 2 3 5 6 5 5 5 3 2 3 5 6 5 2 -0 -1 -0 2 3 3 2 1 1 0 0 0 -0 -1 -1 -1 -2 -3 -3 -4 -3 -2 -1 -1 -1 -2 -2 -3 -3 -2 -2 -1 -1 -1 -2 -2 -3
-2 -1 -0 1 2 3 3 4 4 4 4 3 1 1 2 1 1 2 3 5 5 5 5 5 4 3 3 4 5 5 4 1 -0 0 1 3 3 3 2 1 1 0 0 0 -0 -1 -1 -2 -2 -3 -4 -3 -2 -2 -1 -1 -2 -2 -3 -3 -3 -3 -2 -2 -1 -1 -2 -2 -2
-1 0 2 3 4 4 4 4 4 4 3 2 0 0 0 0 1 2 3 4 4 4 4 4 4 4 4 4 4 4 2 0 0 1 2 4 3 3 2 1 1 0 0 0 -0 -1 -1 -2 -3 -3 -3 -2 -2 -1 -1 -2 -2 -2 -3 -3 -2 -2 -2 -1 -1 -1 -1 -1 -1
1 2 3 4 4 5 5 5 4 3 1 1 0 -0 -0 1 2 3 3 3 3 3 3 2 3 4 5 4 4 3 1 0 1 2 3 4 3 2 1 1 1 0 0 0 -0 -1 -1 -2 -2 -2 -2 -2 -1 -1 -1 -1 -2 -2 -2 -2 -1 -1 -1 -0 -0 -0 -0 -0 -0
3 4 4 4 5 5 5 4 3 1 0 -0 0 0 1 3 3 3 3 3 3 3 2 2 2 4 4 5 4 3 1 1 2 3 3 4 3 2 1 0 0 0 0 0 -0 -1 -2 -2 -2 -2 -2 -1 -1 -1 -1 -1 -1 -1 -1 -1 -1 -1 -1 -0 -0 -0 -0 -1 -1
4 5 5 5 5 5 4 3 1 0 -0 -0 -0 1 3 4 4 4 4 4 4 3 2 2 2 2 3 4 4 3 2 2 3 3 4 3 2 1 1 0 0 0 0 -0 -1 -1 -2 -2 -2 -2 -1 -1 -1 -1 -1 -0 -1 -1 -1 -1 -1 -1 -1 -1 -1 -1 -1 -1 -1
4 5 5 5 5 4 3 1 0 -0 0 0 1 3 4 4 4 3 3 3 3 3 3 3 3 2 2 3 3 3 3 3 3 3 3 2 1 1 0 -0 0 0 -0 -1 -1 -1 -2 -2 -2 -2 -2 -1 -1 -1 -1 -1 -1 -1 -1 -1 -1 -1 -1 -1 -1 -1 -1 -1 -1
5 5 6 5 4 3 2 0 -0 0 1 2 2 2 2 2 1 1 0 1 2 2 3 4 4 4 3 3 3 3 3 3 3 3 2 1 1 0 -0 -0 -0 -0 -1 -1 -1 -1 -2 -2 -2 -2 -2 -2 -1 -1 -1 -1 -1 -1 -1 -1 -1 -1 -1 -1 -1 -1 -1 -1 -1
5 5 5 5 4 2 1 -0 0 1 1 2 2 2 1 1 -0 -1 -1 -0 3 4 4 4 4 5 4 3 2 2 2 2 2 2 1 0 0 -0 -0 0 -0 -1 -1 -2 -2 -1 -1 -2 -2 -2 -2 -2 -1 -1 -1 -1 -1 -1 -1 -1 -1 -1 -1 -1 -1 -1 -1 -2 -2
5 5 5 4 3 1 0 0 1 2 3 3 3 3 2 2 1 -0 -1 0 4 6 7 6 5 4 3 2 1 1 2 2 2 1 0 -0 -0 -0 0 -0 -0 -1 -1 -2 -1 -1 -1 -2 -2 -2 -2 -2 -1 -1 -1 -1 -1 -1 -1 -2 -2 -2 -2 -1 -1 -1 -1 -1 -1
5 5 4 3 2 1 1 2 3 4 4 4 4 4 4 4 4 3 2 3 6 8 8 7 5 3 1 1 1 1 2 2 1 0 0 -0 -0 -0 -0 -0 -1 -1 -1 -1 -1 -1 -1 -2 -2 -2 -2 -1 -1 -1 -1 -1 -1 -1 -2 -2 -2 -2 -2 -1 -1 -1 -1 -1 -1
5 4 3 2 1 1 1 3 4 4 4 4 4 4 5 5 5 5 5 7 8 8 7 6 4 2 2 1 2 2 2 1 1 0 0 0 -0 -0 -1 -1 -1 -1 -1 -0 -0 -1 -2 -2 -2 -2 -2 -1 -1 -1 -2 -2 -2 -2 -2 -2 -1 -1 -1 -1 -1 -1 -1 -0 -0
3 3 2 1 0 0 1 2 2 2 3 3 3 4 5 6 6 6 8 9 8 7 5 4 3 3 3 3 3 2 1 1 0 0 0 -0 -0 -1 -1 -1 -1 -1 -0 0 -0 -1 -2 -2 -2 -2 -2 -2 -2 -2 -2 -1 -2 -2 -1 -1 -1 -0 -0 0 0 0 0 0 0
1 -0 -1 -1 -1 -0 0 1 2 3 3 3 3 4 5 6 6 7 8 8 6 4 3 2 2 2 3 3 2 2 1 0 0 0 -0 -0 -1 -1 -1 -1 -1 -0 0 -0 -1 -2 -2 -2 -2 -2 -2 -2 -2 -2 -1 -1 -1 -1 -1 -1 -1 -0 0 0 0 0 0 0 0
-2 -2 -2 -2 -1 -0 1 1 3 4 4 3 4 5 6 6 7 6 6 5 4 2 2 1 2 2 2 1 1 1 1 0 0 -0 -0 -0 -1 -1 -1 -1 -0 0 0 -1 -2 -2 -2 -2 -3 -3 -2 -2 -1 -1 -1 -0 -0 -1 -1 -1 -1 -1 -1 -0 -0 -0 -0 -1 -1
-2 -2 -1 -0 -0 0 0 1 2 2 2 3 4 5 5 5 5 5 4 2 2 1 1 1 1 1 1 0 0 0 0 0 0 -0 -0 -0 -0 -1 -1 -1 0 0 -0 -2 -2 -3 -3 -3 -3 -2 -2 -2 -2 -1 -1 -0 -0 -0 -1 -1 -1 -2 -2 -2 -1 -1 -1 -1 -0
-1 -0 0 1 1 0 0 0 0 1 1 2 2 2 3 3 4 3 3 1 0 0 0 -0 -0 -0 -0 -0 -0 0 0 0 0 0 0 0 -0 -1 -1 -0 0 -1 -2 -3 -4 -3 -3 -3 -2 -2 -2 -2 -2 -2 -1 -1 -1 -1 -1 -1 -1 -1 -2 -2 -2 -2 -1 0 0
-0 0 0 1 0 0 0 0 0 0 1 1 1 1 1 2 3 2 1 0 -1 -1 -1 -1 -1 -1 -1 -0 -0 0 0 0 0 0 0 -0 -0 -0 -0 -1 -1 -2 -3 -4 -4 -3 -2 -2 -2 -2 -2 -2 -2 -2 -1 -1 -1 -1 -1 -1 -1 -1 -2 -2 -2 -2 -1 0 0
0 0 1 1 0 -0 -1 -1 -1 0 1 2 2 2 2 2 2 1 -0 -1 -1 -1 -2 -2 -1 -1 -1 -0 -0 -0 -0 0 -0 -0 -0 0 1 0 -1 -2 -3 -4 -4 -4 -3 -2 -2 -1 -1 -1 -1 -2 -2 -1 -1 -1 -2 -2 -2 -1 -1 -2 -2 -2 -2 -1 -0 0 -0
1 1 2 2 1 0 -1 -2 -1 0 1 2 3 3 2 2 1 0 -1 -1 -1 -2 -1 -1 -1 -1 -1 -0 -0 -0 -1 -1 -1 -1 -0 0 1 -0 -2 -4 -5 -5 -4 -3 -2 -1 -1 -1 -1 -1 -1 -1 -1 -1 -1 -1 -2 -2 -2 -2 -2 -2 -2 -3 -2 -1 0 0 -0
1 2 3 3 3 3 2 1 -0 -1 -0 1 2 2 2 2 1 0 -1 -1 -2 -1 -1 -1 -1 -1 -1 -1 -1 -1 -1 -1 -1 -0 -0 0 -1 -2 -4 -6 -6 -5 -4 -2 -1 -1 -1 -1 -1 -1 -1 -1 -1 -1 -1 -1 -1 -2 -2 -2 -2 -2 -3 -2 -1 0 1 1 0
-0 1 2 4 6 7 8 5 1 -1 -1 1 2 3 3 2 1 -0 -1 -1 -1 -1 -1 -1 -1 -1 -1 -1 -1 -1 -1 -1 -0 0 -0 -1 -3 -4 -5 -6 -6 -4 -2 -1 -0 -1 -1 -1 -1 -1 -1 -1 -1 -1 -1 -1 -1 -2 -2 -2 -3 -3 -2 -1 0 1 2 1 1
-2 -0 2 3 6 8 8 7 4 2 1 3 4 4 3 1 -0 -1 -1 -1 -1 -1 -1 -1 -1 -1 -1 -1 -1 -1 -0 0 0 -1 -2 -4 -5 -5 -5 -4 -4 -3 -1 -0 -0 -1 -1 -1 -1 -1 -1 -1 -1 -1 -1 -1 -2 -2 -2 -2 -3 -2 -1 0 1 2 2 2 1
-2 -0 1 3 4 4 5 5 4 4 4 4 4 3 1 -0 -1 -1 -1 -1 -1 -1 -1 -1 -1 -1 -1 -1 -0 -0 0 -0 -1 -3 -4 -6 -6 -4 -3 -2 -2 -2 -1 -0 -0 -0 -0 -0 -1 -1 -1 -1 -1 -1 -1 -2 -2 -2 -2 -2 -2 -1 -0 0 1 1 1 1 1
-1 0 2 3 3 3 3 3 3 3 3 2 1 1 1 0 -0 -0 -1 -1 -1 -0 -0 -1 -1 -1 -1 -0 -0 -0 -1 -3 -4 -5 -6 -6 -4 -2 -1 -1 -2 -2 -2 -1 -0 -0 -0 -0 -1 -1 -1 -1 -1 -1 -2 -2 -2 -2 -2 -2 -1 -1 -0 1 1 1 1 1 1
-0 0 1 3 4 4 3 2 1 1 0 0 0 0 0 0 0 0 0 -0 -0 -0 -0 -1 -1 -1 -1 -1 -1 -3 -4 -6 -6 -6 -5 -3 -1 -0 0 -0 -1 -2 -2 -2 -1 -0 -0 -0 -1 -1 -1 -1 -2 -2 -2 -2 -2 -2 -2 -2 -1 -1 -0 0 0 0 0 0 0
-3 -2 -1 1 2 2 1 0 -0 -0 -0 -0 0 0 0 0 0 0 0 -0 -0 -1 -1 -0 -1 -1 -2 -3 -4 -5 -6 -6 -6 -4 -3 -1 -0 0 0 0 -0 -1 -2 -2 -1 -1 -1 -1 -1 -2 -2 -2 -2 -2 -2 -2 -2 -2 -2 -1 -1 -1 -0 0 -0 -1 -1 -0 0
-4 -3 -2 -1 -0 0 1 1 1 0 -0 0 0 0 0 0 -0 -0 -0 -1 -1 -1 -1 -1 -2 -3 -4 -4 -5 -5 -5 -4 -3 -2 -1 0 -0 0 0 1 0 0 -0 -1 -1 -1 -1 -1 -2 -2 -3 -3 -3 -2 -2 -2 -1 -1 -1 -2 -1 -1 -0 -0 -1 -1 -1 -1 0
-1 -1 -1 -1 -0 0 1 2 1 1 1 1 1 0 0 -0 -0 -1 -1 -1 -1 -1 -2 -2 -3 -4 -4 -5 -5 -5 -3 -1 -0 0 0 0 0 0 0 0 1 1 0 -0 -1 -1 -2 -2 -2 -3 -3 -3 -2 -2 -2 -2 -1 -1 -1 -2 -2 -1 -1 -1 -1 -1 -0 -0 -1
0 1 1 1 1 1 1 1 2 2 2 1 0 -0 -1 -1 -1 -0 -0 -1 -1 -2 -2 -3 -4 -4 -5 -5 -4 -3 -2 -0 0 0 0 0 0 0 0 0 1 1 0 -0 -1 -2 -2 -3 -2 -2 -2 -2 -2 -2 -2 -2 -2 -2 -2 -2 -2 -2 -1 -1 -1 -1 -0 -0 -1
1 1 2 3 2 2 1 1 1 1 1 0 -0 -1 -1 -1 -0 -1 -1 -1 -2 -3 -4 -4 -5 -5 -4 -3 -2 -1 -1 -1 -1 -1 -0 -0 -0 -0 -0 0 0 0 -0 -1 -2 -2 -2 -2 -2 -2 -1 -2 -2 -2 -2 -2 -2 -2 -2 -2 -2 -2 -2 -1 -1 -1 -2 -2 -2
Height
1444 1445 1446 1446 1447 1449 1450 1452 1454 1455 1456 1458 1459 1460 1461 1463 1465 1467 1469 1470 1472 1473 1474 1475 1476 1478 1481 1483 1485 1487 1488 1489 1490 1490 1491 1493 1494 1495 1495 1495 1496 1496 1497 1497 1498 1498 1498 1498 1498 1498 1499 1499 1499 1498 1498 1498 1497 1497 1497 1497 1497 1497 1496 1496 1496 1495 1495 1494 1494
1442 1444 1444 1445 1446 1448 1449 1451 1453 1454 1456 1457 1458 1459 1460 1462 1464 1465 1467 1469 1470 1471 1472 1474 1475 1478 1480 1482 1485 1486 1488 1488 1489 1490 1490 1492 1493 1494 1494 1495 1495 1495 1496 1496 1496 1497 1497 1497 1497 1498 1498 1498 1497 1497 1497 1497 1497 1496 1496 1496 1496 1496 1495 1495 1495 1495 1494 1494 1493
1441 1442 1443 1444 1445 1446 1448 1450 1451 1453 1455 1456 1457 1458 1459 1461 1462 1464 1466 1467 1469 1470 1471 1473 1475 1477 1479 1482 1484 1486 1487 1488 1488 1489 1490 1491 1492 1493 1493 1494 1494 1494 1495 1495 1495 1496 1496 1496 1497 1497 1497 1497 1496 1496 1496 1496 1496 1495 1495 1495 1495 1495 1495 1494 1494 1494 1493 1493 1493
1439 1440 1441 1442 1444 1445 1447 1449 1450 1452 1454 1455 1456 1457 1459 1460 1461 1463 1465 1466 1467 1468 1470 1472 1474 1476 1478 1480 1483 1485 1486 1487 1487 1488 1489 1490 1491 1492 1492 1492 1493 1493 1494 1494 1495 1495 1495 1495 1496 1496 1496 1496 1495 1495 1495 1495 1495 1494 1494 1494 1494 1494 1494 1493 1493 1493 1492 1492 1491
1438 1439 1440 1441 1443 1445 1446 1448 1450 1452 1453 1454 1455 1456 1458 1459 1460 1462 1463 1464 1465 1467 1469 1471 1473 1475 1477 1479 1481 1483 1485 1486 1486 1487 1488 1489 1490 1491 1491 1492 1492 1492 1493 1493 1494 1494 1494 1495 1495 1495 1495 1495 1495 1494 1494 1494 1493 1493 1493 1493 1493 1493 1493 1492 1492 1492 1491 1491 1490
1436 1438 1440 1441 1443 1444 1446 1448 1450 1451 1452 1453 1455 1456 1457 1458 1460 1461 1462 1463 1465 1466 1468 1470 1472 1474 1476 1478 1480 1482 1483 1485 1485 1486 1487 1488 1489 1490 1490 1491 1491 1491 1492 1492 1493 1493 1493 1494 1494 1494 1494 1494 1494 1493 1493 1492 1492 1492 1492 1491 1491 1491 1491 1491 1491 1490 1490 1490 1489
1435 1437 1439 1441 1442 1444 1446 1448 1449 1450 1451 1453 1454 1455 1456 1457 1458 1460 1461 1463 1464 1466 1467 1469 1471 1473 1475 1476 1479 1480 1482 1483 1484 1485 1486 1487 1488 1489 1489 1490 1490 1490 1491 1491 1492 1492 1492 1493 1493 1493 1493 1493 1493 1492 1492 1491 1491 1491 1491 1490 1490 1490 1490 1490 1489 1489 1489 1488 1488
1435 1437 1439 1440 1442 1444 1446 1447 1448 1450 1450 1452 1453 1454 1455 1456 1457 1459 1460 1462 1463 1465 1466 1468 1470 1472 1474 1475 1477 1479 1480 1482 1483 1484 1485 1487 1487 1488 1488 1489 1489 1490 1490 1490 1491 1491 1491 1492 1492 1492 1492 1492 1492 1491 1491 1491 1490 1490 1490 1490 1489 1489 1489 1488 1488 1488 1487 1487 1486
1435 1437 1439 1441 1442 1444 1445 1446 1448 1449 1450 1451 1452 1453 1455 1455 1456 1457 1459 1460 1462 1464 1465 1467 1469 1470 1472 1474 1476 1478 1480 1481 1482 1483 1485 1486 1486 1487 1487 1488 1488 1489 1489 1490 1490 1490 1490 1490 1491 1491 1491 1491 1491 1490 1490 1490 1490 1490 1489 1489 1489 1488 1488 1487 1487 1486 1486 1485 1485
1435 1437 1439 1441 1442 1443 1445 1446 1447 1448 1449 1450 1451 1452 1453 1454 1455 1456 1458 1459 1461 1463 1465 1466 1467 1469 1471 1473 1475 1477 1479 1480 1481 1483 1484 1485 1485 1486 1486 1487 1487 1488 1488 1489 1489 1489 1490 1490 1490 1490 1490 1490 1490 1490 1489 1489 1489 1488 1488 1488 1488 1487 1487 1486 1486 1485 1485 1484 1484
1435 1437 1439 1440 1441 1442 1444 1445 1446 1447 1449 1450 1450 1451 1452 1453 1455 1456 1457 1459 1461 1462 1464 1465 1466 1468 1470 1472 1475 1476 1478 1479 1481 1482 1483 1484 1485 1485 1485 1486 1486 1487 1487 1488 1488 1488 1489 1489 1489 1489 1489 1489 1488 1488 1488 1487 1487 1487 1487 1486 1486 1486 1485 1485 1485 1484 1484 1483 1483
1435 1437 1439 1440 1440 1441 1443 1444 1445 1446 1448 1449 1449 1450 1451 1452 1454 1455 1457 1458 1460 1461 1462 1463 1465 1467 1470 1472 1474 1476 1477 1479 1480 1481 1482 1483 1484 1484 1485 1485 1485 1486 1486 1487 1487 1487 1487 1487 1487 1487 1487 1487 1487 1487 1487 1486 1486 1485 1485 1485 1485 1484 1484 1484 1483 1483 1482 1482 1481
1435 1437 1438 1439 1440 1441 1442 1443 1444 1445 1446 1447 1448 1449 1450 1452 1453 1454 1456 1457 1459 1460 1461 1463 1465 1467 1470 1472 1474 1475 1477 1479 1480 1481 1481 1482 1483 1483 1484 1484 1485 1485 1485 1486 1486 1486 1486 1486 1486 1486 1486 1486 1486 1486 1485 1485 1485 1484 1484 1484 1483 1483 1483 1482 1482 1482 1481 1481 1480
1434 1435 1436 1437 1439 1440 1441 1442 1443 1444 1445 1446 1447 1448 1450 1451 1452 1453 1455 1456 1458 1459 1460 1462 1465 1467 1470 1472 1474 1475 1477 1478 1479 1480 1480 1481 1482 1482 1483 1483 1484 1484 1485 1485 1485 1485 1485 1485 1485 1485 1485 1485 1485 1485 1485 1484 1484 1483 1483 1483 1482 1482 1482 1481 1481 1480 1480 1480 1479
1433 1434 1435 1436 1438 1439 1440 1441 1442 1443 1444 1445 1446 1447 1449 1450 1451 1452 1454 1455 1456 1458 1460 1462 1465 1467 1470 1472 1474 1475 1476 1477 1478 1479 1480 1480 1481 1481 1482 1482 1483 1483 1484 1484 1484 1484 1485 1485 1485 1485 1485 1485 1484 1484 1484 1483 1483 1482 1482 1482 1481 1481 1480 1480 1480 1479 1479 1478 1478
1432 1433 1435 1436 1437 1438 1439 1440 1441 1442 1443 1444 1445 1447 1448 1450 1451 1452 1453 1455 1456 1457 1459 1462 1464 1467 1469 1471 1473 1474 1475 1476 1477 1478 1479 1479 1480 1480 1481 1482 1482 1482 1483 1483 1483 1483 1484 1484 1484 1484 1484 1484 1483 1483 1483 1482 1482 1481 1481 1480 1480 1480 1479 1479 1478 1478 1477 1477 1476
1431 1432 1434 1435 1436 1437 1438 1439 1440 1441 1442 1444 1445 1447 1448 1450 1451 1452 1453 1455 1456 1457 1460 1462 1465 1467 1469 1471 1472 1474 1475 1475 1476 1477 1478 1479 1479 1480 1480 1481 1481 1482 1482 1482 1482 1482 1483 1483 1483 1483 1483 1483 1482 1482 1481 1481 1481 1480 1480 1480 1479 1479 1478 1478 1477 1477 1476 1475 1475
1430 1432 1433 1434 1435 1436 1437 1438 1439 1440 1442 1443 1445 1446 1448 1450 1451 1452 1454 1455 1457 1458 1460 1462 1465 1467 1469 1470 1471 1473 1474 1475 1475 1476 1477 1478 1479 1479 1480 1480 1480 1481 1481 1481 1481 1481 1482 1482 1482 1482 1481 1481 1481 1480 1480 1480 1480 1479 1479 1478 1478 1477 1477 1476 1476 1475 1475 1474 1474
1430 1431 1432 1434 1435 1436 1437 1438 1439 1440 1442 1443 1445 1446 1448 1449 1450 1452 1454 1456 1458 1460 1461 1463 1465 1466 1468 1470 1471 1472 1473 1474 1475 1476 1476 1477 1478 1479 1479 1480 1480 1480 1480 1480 1480 1480 1480 1480 1480 1480 1480 1480 1480 1479 1479 1478 1478 1478 1477 1477 1476 1476 1475 1475 1474 1474 1473 1473 1472
1429 1431 1432 1433 1434 1435 1436 1438 1439 1440 1442 1443 1445 1446 1447 1448 1450 1452 1454 1457 1459 1460 1462 1463 1465 1466 1468 1469 1470 1471 1473 1474 1475 1475 1476 1477 1477 1478 1478 1479 1479 1479 1479 1480 1480 1480 1480 1479 1479 1479 1479 1479 1478 1478 1477 1477 1477 1476 1476 1475 1475 1474 1474 1473 1473 1472 1472 1471 1471
1429 1430 1432 1433 1434 1435 1437 1438 1440 1441 1443 1444 1445 1446 1447 1448 1450 1452 1455 1457 1459 1461 1462 1464 1465 1466 1467 1469 1470 1471 1472 1473 1474 1475 1475 1476 1477 1477 1478 1478 1478 1478 1479 1479 1479 1479 1478 1478 1478 1478 1478 1477 1477 1477 1476 1476 1475 1475 1474 1474 1473 1473 1472 1472 1471 1471 1470 1470 1470
1430 1431 1432 1433 1434 1436 1437 1439 1441 1442 1443 1445 1446 1447 1448 1449 1450 1453 1455 1458 1459 1461 1462 1464 1465 1466 1468 1469 1470 1471 1472 1473 1474 1474 1475 1475 1476 1476 1477 1477 1477 1478 1478 1478 1477 1477 1477 1477 1477 1477 1476 1476 1476 1475 1475 1475 1474 1473 1473 1472 1472 1472 1471 1471 1470 1470 1469 1469 1468
1430 1431 1432 1433 1435 1436 1438 1440 1441 1442 1444 1445 1446 1447 1449 1450 1452 1454 1456 1458 1460 1461 1462 1464 1465 1467 1468 1469 1470 1471 1472 1472 1473 1474 1474 1475 1475 1475 1476 1476 1477 1477 1477 1477 1476 1476 1476 1476 1476 1475 1475 1475 1475 1474 1474 1473 1473 1472 1472 1471 1471 1470 1470 1470 1469 1469 1468 1467 1467
1429 1430 1432 1434 1435 1437 1439 1440 1441 1442 1443 1445 1446 1448 1450 1451 1453 1455 1457 1458 1460 1461 1463 1464 1465 1467 1468 1469 1470 1471 1471 1472 1473 1473 1474 1474 1475 1475 1475 1475 1476 1476 1476 1475 1475 1475 1475 1475 1475 1474 1474 1474 1473 1473 1472 1472 1471 1471 1470 1470 1470 1469 1469 1468 1468 1467 1466 1466 1465
1429 1430 1432 1434 1436 1437 1439 1440 1441 1442 1443 1445 1447 1449 1451 1452 1454 1455 1457 1458 1460 1461 1463 1465 1466 1467 1468 1469 1470 1471 1471 1472 1472 1473 1473 1474 1474 1474 1474 1475 1475 1475 1475 1475 1474 1474 1474 1473 1473 1473 1473 1473 1472 1472 1471 1471 1470 1470 1469 1469 1468 1467 1467 1466 1466 1465 1465 1464 1464
1430 1431 1433 1434 1435 1437 1439 1440 1441 1443 1444 1446 1448 1450 1451 1453 1455 1456 1457 1459 1460 1462 1463 1465 1466 1467 1468 1469 1470 1470 1471 1472 1472 1473 1473 1473 1473 1473 1473 1474 1474 1474 1474 1473 1473 1473 1472 1472 1472 1472 1471 1471 1471 1470 1470 1470 1469 1468 1468 1467 1466 1466 1465 1465 1464 1463 1463 1462 1462
1430 1431 1433 1434 1435 1437 1438 1440 1442 1443 1445 1447 1449 1450 1452 1454 1455 1456 1458 1459 1461 1462 1464 1465 1466 1467 1468 1469 1470 1470 1471 1471 1472 1472 1472 1472 1472 1472 1472 1472 1472 1472 1472 1472 1472 1471 1471 1471 1471 1470 1470 1470 1469 1469 1468 1468 1467 1467 1466 1466 1465 1464 1464 1463 1462 1461 1461 1461 1460
1430 1431 1432 1434 1435 1437 1439 1440 1442 1445 1446 1448 1450 1451 1453 1455 1456 1457 1459 1460 1461 1463 1464 1465 1466 1467 1468 1469 1470 1470 1471 1471 1471 1472 1472 1472 1472 1471 1471 1471 1471 1471 1471 1471 1471 1471 1470 1470 1470 1470 1469 1468 1468 1467 1467 1466 1466 1465 1465 1464 1463 1463 1462 1461 1460 1460 1460 1460 1459
1430 1431 1433 1434 1435 1437 1439 1441 1444 1445 1447 1449 1451 1452 1454 1455 1457 1458 1459 1461 1462 1463 1464 1465 1466 1467 1468 1469 1470 1470 1470 1470 1471 1471 1471 1471 1471 1470 1470 1470 1470 1470 1470 1470 1470 1470 1470 1469 1469 1468 1468 1467 1466 1466 1465 1465 1464 1464 1463 1462 1462 1461 1460 1460 1459 1459 1459 1458 1457
1431 1432 1434 1435 1436 1438 1440 1442 1445 1447 1449 1450 1452 1454 1455 1456 1457 1458 1460 1461 1462 1463 1464 1465 1466 1467 1468 1469 1469 1470 1470 1470 1470 1470 1470 1470 1470 1469 1469 1468 1468 1469 1469 1470 1469 1469 1469 1468 1468 1467 1466 1466 1465 1465 1464 1464 1463 1462 1461 1461 1460 1459 1459 1458 1458 1457 1457 1457 1456
1431 1433 1435 1436 1438 1440 1441 1443 1445 1447 1450 1451 1453 1454 1455 1456 1457 1458 1460 1461 1462 1463 1464 1465 1466 1467 1467 1468 1469 1469 1469 1469 1470 1470 1469 1469 1469 1468 1467 1467 1467 1468 1469 1469 1469 1468 1467 1467 1466 1466 1465 1465 1464 1463 1463 1462 1461 1460 1460 1459 1458 1458 1457 1456 1456 1456 1456 1455 1455
1432 1434 1436 1438 1440 1441 1442 1443 1445 1448 1450 1452 1453 1454 1455 1456 1457 1458 1460 1460 1462 1463 1464 1465 1465 1466 1467 1467 1468 1468 1468 1469 1469 1468 1468 1468 1467 1467 1467 1467 1467 1468 1468 1468 1467 1467 1466 1465 1465 1465 1464 1463 1463 1462 1461 1460 1460 1459 1458 1457 1457 1456 1455 1455 1455 1455 1455 1454 1453
1433 1435 1438 1440 1441 1442 1443 1444 1445 1448 1450 1452 1453 1454 1455 1456 1457 1458 1459 1460 1461 1463 1464 1464 1465 1466 1466 1467 1467 1468 1468 1468 1468 1467 1467 1466 1466 1466 1466 1467 1467 1467 1467 1467 1466 1465 1465 1464 1464 1463 1463 1462 1461 1460 1460 1459 1458 1457 1456 1456 1455 1455 1455 1455 1454 1454 1454 1453 1452
1434 1436 1439 1440 1442 1443 1444 1445 1446 1448 1450 1452 1453 1454 1455 1456 1457 1458 1459 1460 1461 1462 1463 1464 1465 1465 1466 1466 1466 1467 1467 1466 1466 1466 1466 1466 1466 1466 1466 1466 1466 1466 1466 1465 1465 1465 1464 1463 1463 1462 1461 1460 1460 1459 1458 1457 1456 1456 1455 1454 1454 1454 1454 1453 1453 1453 1452 1452 1451
1435 1437 1440 1441 1443 1444 1445 1446 1447 1449 1450 1452 1453 1454 1455 1456 1457 1458 1459 1460 1461 1462 1463 1464 1464 1465 1465 1465 1465 1465 1465 1465 1465 1465 1465 1466 1466 1466 1466 1465 1465 1465 1465 1464 1464 1463 1463 1462 1461 1460 1460 1459 1458 1457 1457 1456 1455 1454 1454 1453 1453 1453 1452 1452 1452 1451 1451 1450 1450
1437 1439 1441 1442 1443 1444 1445 1447 1448 1450 1451 1452 1453 1454 1455 1456 1457 1458 1459 1460 1461 1462 1462 1463 1464 1464 1464 1464 1464 1464 1464 1464 1465 1465 1465 1466 1466 1466 1465 1465 1464 1464 1463 1463 1463 1462 1461 1460 1460 1459 1458 1457 1457 1456 1455 1454 1454 1453 1452 1452 1452 1451 1451 1451 1451 1450 1450 1449 1448
1438 1440 1441 1443 1444 1445 1446 1447 1449 1450 1451 1452 1454 1455 1455 1456 1457 1458 1459 1460 1461 1461 1462 1463 1463 1463 1463 1463 1463 1463 1464 1464 1464 1465 1465 1465 1465 1465 1465 1464 1463 1463 1462 1462 1461 1461 1460 1459 1458 1457 1457 1456 1455 1454 1454 1453 1452 1452 1451 1451 1450 1450 1450 1450 1449 1449 1448 1447 1447
1438 1440 1442 1443 1444 1445 1447 1448 1450 1450 1452 1453 1454 1455 1456 1457 1458 1458 1459 1460 1460 1461 1461 1462 1462 1462 1462 1463 1463 1463 1464 1464 1465 1465 1465 1465 1465 1464 1464 1463 1463 1462 1461 1461 1460 1459 1459 1458 1457 1456 1455 1455 1454 1453 1452 1452 1451 1450 1450 1450 1449 1449 1449 1448 1448 1447 1446 1446 1445
1439 1440 1442 1444 1445 1447 1448 1449 1450 1451 1452 1453 1454 1455 1456 1457 1458 1459 1459 1460 1460 1460 1460 1461 1461 1461 1462 1462 1463 1463 1464 1464 1465 1465 1464 1464 1464 1463 1463 1462 1462 1461 1460 1460 1459 1458 1457 1456 1455 1455 1454 1453 1452 1452 1451 1450 1450 1449 1449 1449 1448 1448 1447 1447 1446 1445 1445 1444 1444
1439 1441 1443 1445 1446 1448 1449 1450 1451 1452 1453 1454 1455 1455 1456 1457 1458 1458 1459 1459 1460 1460 1460 1460 1461 1461 1461 1462 1462 1463 1464 1464 1464 1464 1463 1463 1462 1462 1462 1461 1461 1460 1459 1459 1458 1457 1456 1455 1455 1454 1453 1452 1451 1451 1450 1450 1449 1448 1448 1447 1447 1446 1446 1445 1445 1444 1443 1443 1442
1440 1442 1444 1446 1447 1449 1450 1450 1451 1452 1453 1454 1455 1455 1456 1457 1457 1458 1458 1458 1459 1459 1460 1460 1460 1461 1462 1462 1463 1463 1463 1463 1462 1462 1462 1462 1461 1461 1460 1460 1460 1459 1458 1457 1457 1456 1455 1454 1453 1453 1452 1451 1450 1450 1449 1449 1448 1447 1446 1446 1445 1445 1444 1444 1443 1442 1442 1441 1440